Weather History for Laramie, WY

Change the Weather History Date:

Sunday, July 21, 2013

  Actual Average Record
Temperature  
Mean Temperature 67 °F 65 °F  
Max Temperature 88 °F 81 °F 92 °F (2005)
Min Temperature 46 °F 49 °F 40 °F (1949)
Degree Days  
Heating Degree Days 0 2  
Month to date heating degree days 9 52  
Since 1 June heating degree days 112 293  
Since 1 July heating degree days 9 52  
Cooling Degree Days 2 2  
Month to date cooling degree days 50 24  
Year to date cooling degree days 86 31  
Since 1 June cooling degree days 86 31  
Growing Degree Days 17 (Base 50)    
Moisture  
Dew Point 34 °F    
Average Humidity 52    
Maximum Humidity 93    
Minimum Humidity 10    
Precipitation  
Precipitation 0.00 in 0.05 in 0.51 in (1966)
Month to date precipitation 1.57 0.93  
Year to date precipitation 4.98 6.42  
Sea Level Pressure  
Sea Level Pressure 29.78 in    
Wind  
Wind Speed 8 mph (West)    
Max Wind Speed 25 mph    
Max Gust Speed 35 mph    
Visibility 10 miles    
Events      
T = Trace of Precipitation, MM = Missing Value Source: NWS Daily Summary

Daily Weather History Graph

Daily Weather History Graph

Search for Another Location

Airport:

Trip Planner

Search our weather history database for the weather conditions in past years. The results will help you decide how hot, cold, wet, or windy it might be!

Date:

Astronomy

Jul. 21, 2013 Rise Set
Actual Time 5:47 AM MDT 8:29 PM MDT
Civil Twilight 5:15 AM MDT 9:01 PM MDT
Nautical Twilight 4:35 AM MDT 9:42 PM MDT
Astronomical Twilight 3:49 AM MDT 10:27 PM MDT
Moon 7:29 PM MDT (7/21) 4:36 AM MDT (7/21)
Length of Visible Light 15h 46m
Length of Day
14h 42m
Waxing Gibbous, 98% of the Moon is Illuminated
Jul 21
Waxing Gibbous
Jul 22
Full
Jul 29
Last Quarter
Aug 6
New
Aug 14
First Quarter

Hourly Weather History & Observations

Time (MDT) Temp. Dew Point Humidity Pressure Visibility Wind Dir Wind Speed Gust Speed Precip Events Conditions
12:53 AM 55.9 °F 46.0 °F 69% 29.78 in 10.0 mi South 13.8 mph - N/A   Clear
1:53 AM 54.0 °F 46.9 °F 77% 29.79 in 10.0 mi South 9.2 mph - N/A   Clear
2:53 AM 50.0 °F 46.0 °F 86% 29.79 in 10.0 mi South 9.2 mph - N/A   Clear
3:53 AM 50.0 °F 46.0 °F 86% 29.78 in 10.0 mi South 6.9 mph - N/A   Clear
4:53 AM 46.9 °F 44.1 °F 90% 29.84 in 10.0 mi SW 4.6 mph - N/A   Clear
5:53 AM 48.0 °F 43.0 °F 83% 29.81 in 10.0 mi South 4.6 mph - N/A   Clear
6:53 AM 51.1 °F 46.0 °F 83% 29.81 in 10.0 mi Calm Calm - N/A   Clear
7:53 AM 59.0 °F 44.1 °F 58% 29.82 in 10.0 mi Calm Calm - N/A   Clear
8:53 AM 64.9 °F 45.0 °F 48% 29.83 in 10.0 mi Calm Calm - N/A   Clear
9:53 AM 72.0 °F 39.9 °F 31% 29.80 in 10.0 mi NE 4.6 mph - N/A   Clear
10:53 AM 75.0 °F 39.9 °F 28% 29.79 in 10.0 mi NE 4.6 mph - N/A   Clear
11:53 AM 80.1 °F 42.1 °F 26% 29.77 in 10.0 mi NE 4.6 mph - N/A   Clear
12:53 PM 80.1 °F 33.1 °F 18% 29.76 in 10.0 mi West 9.2 mph 21.9 mph N/A   Partly Cloudy
1:32 PM 84.2 °F 28.4 °F 13% 30.10 in 10.0 mi NNW 12.7 mph 24.2 mph N/A   Clear
1:53 PM 84.0 °F 27.0 °F 13% 29.73 in 10.0 mi NW 15.0 mph 26.5 mph N/A   Clear
2:53 PM 88.0 °F 26.1 °F 11% 29.73 in 10.0 mi West 16.1 mph 25.3 mph N/A   Clear
3:53 PM 84.0 °F 24.1 °F 11% 29.74 in 10.0 mi West 15.0 mph 24.2 mph N/A   Clear
4:53 PM 87.1 °F 24.1 °F 10% 29.72 in 10.0 mi West 13.8 mph 24.2 mph N/A   Clear
5:53 PM 84.9 °F 21.0 °F 10% 29.71 in 10.0 mi West 23.0 mph 27.6 mph N/A   Clear
6:53 PM 82.9 °F 21.0 °F 10% 29.70 in 10.0 mi WNW 16.1 mph 21.9 mph N/A   Clear
7:53 PM 80.1 °F 21.9 °F 12% 29.68 in 10.0 mi WNW 11.5 mph - N/A   Clear
8:53 PM 66.9 °F 25.0 °F 21% 29.73 in 10.0 mi West 9.2 mph - N/A   Clear
9:53 PM 68.0 °F 23.0 °F 18% 29.72 in 10.0 mi NNW 6.9 mph - N/A   Clear
10:53 PM 63.0 °F 28.0 °F 27% 29.74 in 10.0 mi Calm Calm - N/A   Clear
11:53 PM 61.0 °F 28.9 °F 30% 29.74 in 10.0 mi Calm Calm - N/A   Clear